FW8355 Weather Reports


Display with metric or nautical units.
time (UTC)temp
F
wind
direction
speed
MPH
gust
MPH
rain 1hr
in
rain 24hr
in
rain mn
in
humidity
%
barometer
mb
20260503211018 59 0.0 2.0 0.00 0.00 0.00 81 1017.5
20260503210016 59 270 3.0 7.0 0.00 0.00 0.00 80 1017.5
20260503205016 60 270 5.0 10.0 0.00 0.00 0.00 81 1017.5
20260503204016 59 270 2.0 4.0 0.00 0.00 0.00 81 1017.3
20260503203016 59 270 2.0 7.0 0.00 0.00 0.00 80 1017.2
20260503202016 59 270 3.0 6.0 0.00 0.00 0.00 82 1017.2
20260503201016 58 293 3.0 5.0 0.00 0.00 0.00 83 1017.1
20260503200036 58 315 1.0 4.0 0.00 0.00 0.00 83 1017.1
20260503195016 58 338 2.0 2.0 0.00 0.00 0.00 83 1017.1
20260503194016 58 293 1.0 2.0 0.00 0.00 0.00 83 1016.9
20260503193016 57 293 1.0 3.0 0.00 0.00 0.00 84 1016.9
20260503192016 57 0.0 0.0 0.00 0.00 0.00 84 1016.8
20260503191016 57 0.0 0.0 0.00 0.00 0.00 83 1016.7
20260503190016 58 0.0 1.0 0.00 0.00 0.00 83 1016.6
20260503185016 58 315 1.0 3.0 0.00 0.00 0.00 83 1016.6
20260503184016 58 293 1.0 3.0 0.00 0.00 0.00 82 1016.5
20260503183016 59 0.0 2.0 0.00 0.00 0.00 82 1016.4
20260503182016 59 293 1.0 2.0 0.00 0.00 0.00 81 1016.3
20260503181016 60 0.0 0.0 0.00 0.00 0.00 79 1016.2
20260503180016 61 0.0 1.0 0.00 0.00 0.00 77 1016.0
20260503175016 62 0.0 0.0 0.00 0.00 0.00 75 1015.9
20260503174016 62 0.0 1.0 0.00 0.00 0.00 75 1015.9
20260503173016 63 0.0 2.0 0.00 0.00 0.00 74 1015.9
20260503172016 63 203 2.0 5.0 0.00 0.00 0.00 73 1016.0
20260503171015 64 203 5.0 9.0 0.00 0.00 0.00 72 1016.0
20260503131017 71 203 4.0 10.0 0.00 0.00 0.00 49 1016.3
20260503081017 66 203 2.0 7.0 0.00 0.00 0.00 41 1018.1
20260503072016 62 90 1.0 3.0 0.00 0.00 0.00 53 1018.3
20260503071017 61 158 2.0 4.0 0.00 0.00 0.00 55 1018.2
20260503055016 55 0.0 3.0 0.00 0.00 0.00 64 1018.4
20260503054016 53 68 1.0 4.0 0.00 0.00 0.00 64 1018.4
20260503053016 53 0.0 0.0 0.00 0.00 0.00 65 1018.5
20260503052017 52 0.0 0.0 0.00 0.00 0.00 66 1018.4
20260503051016 52 0.0 0.0 0.00 0.00 0.00 67 1018.3
20260503050017 50 0.0 0.0 0.00 0.00 0.00 69 1018.2
20260503045016 48 0.0 0.0 0.00 0.00 0.00 70 1018.1
20260503044037 47 0.0 0.0 0.00 0.00 0.00 72 1018.0
20260503043157 47 0.0 0.0 0.00 0.00 0.00 72 1018.0
20260503042016 46 0.0 0.0 0.00 0.00 0.00 73 1018.0
20260503041016 46 0.0 0.0 0.00 0.00 0.00 73 1017.9
20260503040019 46 0.0 0.0 0.00 0.00 0.00 71 1017.8
20260503035036 47 0.0 0.0 0.00 0.00 0.00 69 1017.8
20260503034016 47 0.0 0.0 0.00 0.00 0.00 67 1017.8
20260503033016 46 0.0 0.0 0.00 0.00 0.00 68 1017.6
20260503032016 46 0.0 0.0 0.00 0.00 0.00 68 1017.6
20260503031016 46 0.0 0.0 0.00 0.00 0.00 69 1017.7
20260503030016 46 0.0 0.0 0.00 0.00 0.00 70 1017.8
20260503025016 46 45 2.0 4.0 0.00 0.00 0.00 70 1017.7
20260503024016 46 23 3.0 4.0 0.00 0.00 0.00 71 1017.9
20260503023016 47 45 1.0 3.0 0.00 0.00 0.00 70 1018.0
20260503022016 46 0.0 2.0 0.00 0.00 0.00 70 1018.1
20260503021016 47 0.0 1.0 0.00 0.00 0.00 71 1018.1
20260503020016 46 45 1.0 2.0 0.00 0.00 0.00 71 1018.1
20260503015016 47 0.0 1.0 0.00 0.00 0.00 69 1018.2
20260503014016 47 0.0 1.0 0.00 0.00 0.00 68 1018.1
20260503013016 47 45 1.0 2.0 0.00 0.00 0.00 69 1018.1
20260503012016 47 45 1.0 2.0 0.00 0.00 0.00 68 1018.1
20260503011016 47 45 1.0 3.0 0.00 0.00 0.00 68 1018.3
20260503010016 48 0.0 1.0 0.00 0.00 0.00 69 1018.4
20260503005016 48 0.0 1.0 0.00 0.00 0.00 68 1018.6
20260503004016 48 338 2.0 4.0 0.00 0.00 0.00 67 1018.7
20260503003016 48 45 1.0 2.0 0.00 0.00 0.00 67 1018.8
20260503002016 48 45 2.0 4.0 0.00 0.00 0.00 65 1018.8
20260503001016 49 45 1.0 2.0 0.00 0.00 0.00 63 1019.0
20260503000016 49 90 1.0 4.0 0.00 0.00 0.00 62 1019.0
20260502235016 49 0.0 1.0 0.00 0.00 0.00 61 1019.2
20260502234056 49 68 2.0 3.0 0.00 0.00 0.00 61 1019.2
20260502233016 49 45 3.0 6.0 0.00 0.00 0.00 60 1019.5
20260502232056 50 45 1.0 3.0 0.00 0.00 0.00 59 1019.6
20260502231016 51 23 2.0 4.0 0.00 0.00 0.00 58 1019.7
20260502230016 51 0.0 1.0 0.00 0.00 0.00 59 1019.8
20260502225036 51 338 1.0 3.0 0.00 0.00 0.00 59 1019.8
20260502224015 51 45 3.0 4.0 0.00 0.00 0.00 58 1019.9
20260502223016 52 45 1.0 3.0 0.00 0.00 0.00 57 1019.8
20260502222015 52 0.0 1.0 0.00 0.00 0.00 57 1019.9
20260502221016 52 0.0 0.0 0.00 0.00 0.00 58 1019.7
20260502220015 53 23 1.0 3.0 0.00 0.00 0.00 56 1019.7
20260502215016 52 23 4.0 5.0 0.00 0.00 0.00 58 1019.7
20260502214016 52 23 2.0 3.0 0.00 0.00 0.00 60 1019.7
20260502213016 51 23 2.0 4.0 0.00 0.00 0.00 60 1019.7
20260502212016 53 90 1.0 2.0 0.00 0.00 0.00 57 1019.7